Well Details
Well Information

03721360

Porter

32C

Los Angeles [037]

2

Southern California Gas Company [S4700]

Aliso Canyon [010]

Any Area [00]

27

03N

16W

SB

Active

GS, OG


gps

83

34.312476

-118.550457

map

Well Records

File Name Type Size Modified on
 
 03721360_DATA_03-19-2008.pdf PDF 17.00 MB 1/24/2017
 03721360_P 32C_PTEST_09-07-2016(2).xlsx Excel 766.00 KB 9/26/2016
 03721360_P 32C_PTEST_09-07-2016(1).xlsx Excel 761.00 KB 9/14/2016
 03721360_P 32C_PTEST_09-07-2016.xlsx Excel 761.00 KB 9/14/2016
 03721360_P 32C_Temp_03-25-2016.pdf PDF 721.00 KB 3/29/2016
 03721360_P 32C_Noise_03-25-2016.pdf PDF 3.00 MB 3/29/2016
 03721360_P 32C_Noise_03-25-2016.las Text 1.00 MB 3/29/2016
 03721360_Survey_Temperature_11-04-2015(P32C).pdf PDF 642.00 KB 11/10/2015
 03721360_Survey_Temperature_10-27-2014(P32C).pdf PDF 197.00 KB 11/4/2014
 03721360_Survey_Temperature_10-01-2013(P32C).pdf PDF 245.00 KB 10/11/2013
 03721360_Survey_Temperature_09-24-2012(P32C).pdf PDF 85.00 KB 10/1/2012
 03721360_Survey_Temperature_08-15-2011.pdf PDF 96.00 KB 3/15/2012
 03721360_Survey_Temperature_08-15-2011(P32C).pdf PDF 96.00 KB 8/22/2011
 03721360_Survey_Temperature_08-03-2010(P32C).pdf PDF 40.00 KB 8/12/2010
 03721360_Survey_Temperature_07-12-2010(P32C).pdf PDF 40.00 KB 7/27/2010
 03721360_TEMPERATURE_09-17-2009.pdf PDF 163.00 KB 9/21/2009
 03721360_Temperature_9-13-2006.tif TIF 60.00 KB 6/23/2009
 03721360_Temperature_8-11-2004.tif TIF 60.00 KB 6/23/2009
 03721360_Pressure Survey_9-13-2006.tif TIF 78.00 KB 6/23/2009
 03721360_PRESSURE_TEMPERATURE_09-16-08.pdf PDF 45.00 KB 9/18/2008
 03721360_Temperature_9-20-1996.tif TIF 221.00 KB 8/2/2008
 03721360_Temperature_8-29-1995.tif TIF 248.00 KB 8/2/2008
 03721360_Temperature_8-18-1993.tif TIF 178.00 KB 8/2/2008
 03721360_Temperature_3-22-1989.tif TIF 166.00 KB 8/2/2008
 03721360_Temperature_7-28-1992.tif TIF 199.00 KB 8/2/2008
 03721360_Temperature_8-29-1991.tif TIF 211.00 KB 8/2/2008
 03721360_Temperature_12-21-1998.tif TIF 41.00 KB 8/2/2008
 03721360_Temperature_10-15-1999.tif TIF 57.00 KB 8/2/2008
 03721360_Temperature_3-16-2000.tif TIF 57.00 KB 8/2/2008
 03721360_Temperature_7-22-1994.tif TIF 109.00 KB 8/2/2008
 03721360_Correlation log_6-30-1977.tif TIF 1.00 MB 8/12/2007
 03721360_Sidewall Neutron Log_1-1-1974.tif TIF 165.00 KB 7/5/2007
 03721360_Sidewall Neutron Log_12-3-1973.tif TIF 283.00 KB 7/5/2007
 03721360_Vertilog_7-26-1989.tif TIF 3.00 MB 5/18/2007
 03721360_Collar Log_7-26-1989.tif TIF 396.00 KB 5/18/2007
 03721360_Induction-Electrical Log_12-2-1973.tif TIF 1.00 MB 5/18/2007


Production Data


Date Oil(bbl) Water(bbl) Gas(Mcf) Days Producing Gravity Csg Tbg BTU MO Disp PWT Status Well Type Status Pool Code Sum Row
Date Oil(bbl) Water(bbl) Gas(Mcf) Days Producing Gravity Csg Tbg BTU MO Disp PWT Status Well Type Status Pool Code Sum Row


Injection Data


Date Water/Steam(bbl) Gas/Air(Mcf) Days Injecting Pressure Water Source Water Kind PWT Status Well Type Status Pool Code Sum Row
Date Water/Steam(bbl) Gas/Air(Mcf) Days Injecting Pressure Water Source Water Kind PWT Status Well Type Status Pool Code Sum Row



Production Charts



Injection Charts